User: anonymous   Login
Location: *
(48.8489°N, 2.3218°E)
Time: 23:55:38
(UTC+00:00)
Language:

Resurs 1-3 - Orbit

View from above orbital plane
View from above orbital plane
View from above satellite
View from above satellite

Ground track
Ground track

The orbit data is extracted from the following two-line orbital elements,

1 23342U 94074A   19288.16223837  .00000037  00000-0  11889-4 0  9999
2 23342  97.9680 334.7999 0000948 114.1258 246.0053 14.79400717343440
Epoch (UTC): 15 October 2019 03:53:37
Eccentricity: 0.0000948
inclination: 97.9680°
perigee height: 630 km
apogee height: 632 km
right ascension of ascending node: 334.7999°
argument of perigee: 114.1258°
revolutions per day: 14.79400717
mean anomaly at epoch: 246.0053°
orbit number at epoch: 34344

The dashed part of the orbit path shows where the satellite is in the earth's shadow,  

DLR